Location: Ferma
(41.9500°N, 44.5167°E)
Time: 19:18:59
(UTC+00:00)

Cosmos 2322 Rocket - Pass Details

Date: 24 October 2021
Orbit: 832 x 851 km, 71.0° (Epoch: 02 December)

Event Time Altitude Azimuth Distance (km) Brightness Sun altitude
Rises 16:21:36 0° 232° (SW) 3,366 6.0 -25.7°
Reaches altitude 10° 16:24:18 10° 242° (WSW) 2,436 5.3 -26.2°
Maximum altitude 16:29:13 31° 304° (NW) 1,424 3.9 -27.1°
Drops below altitude 10° 16:34:11 10° 6° (N) 2,453 4.6 -28.0°
Enters shadow 16:36:24 - 15° (NNE) 3,211 5.2 -28.4°
